Regional Weather Roundup
Issued by NWS Jackson, KY

Home | Current Version | Previous Version | Text Only | Print | Product List | Glossary On
Versions: 1 2 3 4 5 6 7 8 9 10 11 12 13 14 15 16 17 18 19 20 21 22 23 24 25 26 27 28 29 30 31 32 33 34 35 36 37 38 39 40 41 42 43 44 45 46 47 48 49 50
979
ASUS43 KJKL 302210
RWRJKL

EAST KENTUCKY HOURLY WEATHER ROUNDUP
NATIONAL WEATHER SERVICE JACKSON KY
600 PM EDT MON MAY 30 2016

NOTE: "FAIR" INDICATES FEW OR NO CLOUDS BELOW 12,000 FEET WITH
NO SIGNIFICANT WEATHER AND/OR OBSTRUCTIONS TO VISIBILITY.

* THESE REPORTS ARE NOT UNDER NWS QUALITY CONTROL AND MAY NOT
  REPORT WEATHER SUCH AS PRECIPITATION AND FOG.

KYZ079-080-083-085-087-088-110-112-115-119-120-302300
...EASTERN KENTUCKY...

CITY           SKY/WX    TMP DP  RH WIND       PRES   REMARKS
JACKSON        MOSUNNY   82  61  48 CALM      30.01F
LONDON         MOSUNNY   84  60  44 N7        30.00F
SOMERSET*      MOSUNNY   82  55  39 NE10      30.00F
MONTICELLO*    SUNNY     84  60  44 N17       30.01F
WILLIAMSBURG*  CLEAR     82  61  47 N7        29.99F
MIDDLESBORO*   MOSUNNY   82  65  57 NW5       29.99F
HARLAN APT*      N/A     81  59  47 N9        30.00F
HAZARD APT*    CLEAR     82  61  47 NW3       30.00F
BLACK MTN*       N/A     70  59  68 N7          N/A
PIKE CO APT*     N/A     79  64  59 NW6       30.01F
BIG SANDY APT* CLEAR     82  62  50 N5        29.99F
MOREHEAD APT*  CLEAR     82  61  47 VRB6      30.02F
ASHLAND*       SUNNY     84  63  48 N5        29.96F
$$

KYZ035-036-041-042-044-050-067-078-099-302300
...CENTRAL KENTUCKY...

CITY           SKY/WX    TMP DP  RH WIND       PRES   REMARKS
MT STERLING*   SUNNY     82  61  47 NE5       30.02F
FLEMING/MASON* SUNNY    N/A N/A N/A NE3       30.01F
DANVILLE*      PTSUNNY   82  61  47 N6        30.01F
RICHMOND*      MOSUNNY   84  59  42 N5        29.99F
LEXINGTON      SUNNY     85  60  42 N8        30.00F
FRANKFORT      SUNNY     87  56  34 VRB5      29.99F
LOUISVILLE     MOSUNNY   87  54  32 N5        29.98F
LEBANON*       MOCLDY    84  59  42 N7        30.00F
GLASGOW*       SUNNY     84  56  38 N3        29.98F
BOWLING GREEN  MOSUNNY   87  56  34 VRB3      29.98F
$$

KYZ091>093-OHZ055-061-077-WVZ005-015-034-035-042-302300
...SOUTHERN OHIO/WEST VIRGINIA...

CITY           SKY/WX    TMP DP  RH WIND       PRES   REMARKS
COVINGTON      SUNNY     86  54  33 NW8       29.99F
COLUMBUS       MOSUNNY   83  54  36 NW10      29.97S
DAYTON         MOSUNNY   85  55  35 NW9       30.00F
WILMINGTON     MOSUNNY   84  55  36 N7        29.99F
HUNTINGTON       N/A     85  60  42 N6        29.98F
CHARLESTON       N/A     84  61  45 NW6       29.98S
PINEVILLE*       N/A     83  55  37 MISG      30.04S
BECKLEY          N/A     78  56  46 N13       30.03S
BLUEFIELD        N/A     73  59  61 VRB5      30.05F
LOGAN CO APT*    N/A     81  61  50 N6        30.00S
$$

VAZ002-007-008-TNZ017-027-036-066-071-302300
...SOUTHWEST VIRGINIA/EAST TENNESSEE...

CITY           SKY/WX    TMP DP  RH WIND       PRES   REMARKS
WISE*            N/A     79  50  36 N6        30.07F
JONESVILLE*      N/A     82  64  54 CALM      30.01F
ABINGDON*        N/A     83  58  42 N10G16    30.01S
BRISTOL        CLOUDY    76  61  59 NW6       30.00R
SEVIERVILLE*   PTCLDY    84  61  45 NE17      29.96S
KNOXVILLE      LGT RAIN  78  64  61 N15       29.96S
OAK RIDGE      SUNNY     89  59  36 VRB5      29.97F
CROSSVILLE     MOSUNNY   82  56  40 N9        30.03F
NASHVILLE      MOSUNNY   89  55  31 NE9       29.98F
$$

...KEY TO REMARKS...
VSB - VISIBILITY IN MILES
WCI - WIND CHILL INDEX
HX  - HEAT INDEX

$$




USA.gov is the U.S. government's official web portal to all federal, state and local government web resources and services.